Hurghada, Egypt

2:09 PM EET on February 23, 2017 (GMT +0200)
Hurghada International

Weather History for HEGN - July, 2013

Change the Weather History Date:

Saturday, July 13, 2013

  Actual Average Record
Temperature  
Mean Temperature 88 °F -  
Max Temperature 97 °F 96 °F 109 °F (2016)
Min Temperature 78 °F 81 °F 78 °F (2013)
Cooling Degree Days 22    
Growing Degree Days 38 (Base 50)    
Moisture  
Dew Point 66 °F    
Average Humidity 45    
Maximum Humidity 69    
Minimum Humidity 25    
Precipitation  
Precipitation 0.00 in - - ()
Sea Level Pressure  
Sea Level Pressure 29.64 in    
Wind  
Wind Speed 17 mph ()    
Max Wind Speed 49 mph    
Max Gust Speed -    
Visibility 4.8 miles    
Events      
Averages and records for this station are not official NWS values.
T = Trace of Precipitation, MM = Missing Value Source: Averaged Metar Reports

Daily Weather History Graph

Daily Weather History Graph

Search for Another Location

Airport or City:

Trip Planner

Search our weather history database for the weather conditions in past years. The results will help you decide how hot, cold, wet, or windy it might be!

Date:

Astronomy

Jul. 13, 2013 Rise Set
Actual Time 4:59 AM EET 6:42 PM EET
Civil Twilight 4:33 AM EET 7:08 PM EET
Nautical Twilight 4:02 AM EET 7:39 PM EET
Astronomical Twilight 3:29 AM EET 8:12 PM EET
Moon 9:24 AM EET (7/13) 9:45 PM EET (7/13)
Length of Visible Light 14h 34m
Length of Day
13h 42m
Waxing Crescent, 23% of the Moon is Illuminated
Jul 13
Waxing Crescent
Jul 16
First Quarter
Jul 22
Full
Jul 29
Last Quarter
Aug 6
New

Hourly Weather History & Observations

Time (EET) Temp. Heat Index Dew Point Humidity Pressure Visibility Wind Dir Wind Speed Gust Speed Precip Events Conditions
12:00 AM 86.0 °F 86.6 °F 62.6 °F 45% 29.65 in - NW 11.5 mph - N/A   Clear
1:00 AM 84.2 °F 86.6 °F 66.2 °F 55% 29.65 in - NW 16.1 mph - N/A   Clear
2:00 AM 84.2 °F 87.3 °F 68.0 °F 58% 29.65 in - NW 13.8 mph - N/A   Clear
3:00 AM 82.4 °F 85.4 °F 68.0 °F 62% 29.65 in - NW 16.1 mph - N/A   Clear
4:00 AM 80.6 °F 83.2 °F 68.0 °F 65% 29.65 in - NNW 10.4 mph - N/A   Clear
5:00 AM 80 °F - 68 °F 59% 29.68 in 6 mi NW 11.5 mph - -  
5:10 AM 78.8 °F - 68.0 °F 69% 29.65 in - NW 13.8 mph - N/A   Clear
6:00 AM 80.6 °F 83.2 °F 68.0 °F 65% 29.65 in - NW 15.0 mph - N/A   Clear
7:00 AM 84.2 °F 86.6 °F 66.2 °F 55% 29.68 in - North 11.5 mph - N/A   Clear
8:00 AM 86 °F - 70 °F 49% 29.69 in 6 mi North 40.3 mph - -  
8:00 AM 86.0 °F 90.4 °F 69.8 °F 58% 29.68 in - North 20.7 mph - N/A   Clear
9:00 AM 87.8 °F 92.6 °F 69.8 °F 55% 29.65 in - North 26.5 mph - N/A   Clear
10:00 AM 89.6 °F 94.7 °F 69.8 °F 52% 29.65 in - North 25.3 mph - N/A   Clear
11:00 AM 91 °F - 71 °F 42% 29.68 in 4 mi North 49.2 mph - -   Blowing Sand
11:00 AM 91.4 °F 98.4 °F 71.6 °F 52% 29.65 in 3.7 mi North 25.3 mph - N/A   Unknown
12:00 PM 93.2 °F 97.7 °F 68.0 °F 44% 29.65 in 3.7 mi North 25.3 mph - N/A   Unknown
1:00 PM 95.0 °F 99.5 °F 68.0 °F 41% 29.62 in 3.7 mi North 27.6 mph - N/A   Unknown
2:00 PM 96 °F - 66 °F 28% 29.62 in 4 mi North 23.0 mph - -   Blowing Sand
2:00 PM 96.8 °F 100.7 °F 66.2 °F 37% 29.62 in 3.7 mi North 23.0 mph - N/A   Unknown
3:00 PM 96.8 °F 98.0 °F 62.6 °F 32% 29.59 in - North 23.0 mph - N/A   Clear
4:00 PM 96.8 °F 99.0 °F 64.4 °F 34% 29.59 in - North 25.3 mph - N/A   Clear
5:00 PM 95 °F - 64 °F 26% 29.60 in 6 mi North 23.0 mph - -  
5:00 PM 95.0 °F 97.0 °F 64.4 °F 36% 29.59 in - North 23.0 mph - N/A   Clear
6:00 PM 93.2 °F 94.9 °F 64.4 °F 38% 29.59 in - North 23.0 mph - N/A   Clear
7:00 PM 91.4 °F 93.2 °F 64.4 °F 41% 29.59 in - North 20.7 mph - N/A   Clear
8:00 PM 89 °F - 64 °F 33% 29.63 in 6 mi NNW 35.8 mph - -  
8:00 PM 89.6 °F 91.1 °F 64.4 °F 43% 29.62 in - NNW 18.4 mph - N/A   Clear
9:00 PM 89.6 °F 88.1 °F 57.2 °F 33% 29.62 in - NW 17.3 mph - N/A   Clear
10:00 PM 87.8 °F 86.1 °F 55.4 °F 33% 29.65 in - WNW 9.2 mph - N/A   Clear
11:00 PM 87 °F - 56 °F 25% 29.66 in 6 mi WNW 10.4 mph - -  
11:00 PM 86.0 °F 84.9 °F 57.2 °F 37% 29.65 in - WNW 10.4 mph - N/A   Clear